Location: B�rgermoos
(47.6500°N, 9.0667°E)
Time: 18:26:09
(UTC+00:00)

Tiros 1 - Pass Details

Date: 07 August 2021
Orbit: 630 x 663 km, 48.4° (Epoch: 20 September)

Event Time Altitude Azimuth Distance (km) Brightness Sun altitude
Rises 18:56:52 0° 281° (WNW) 2,987 12.5 -2.0°
Reaches altitude 10° 18:59:14 10° 281° (WNW) 2,070 11.4 -2.3°
Maximum altitude 19:04:01 85° 196° (SSW) 660 7.2 -3.1°
Drops below altitude 10° 19:08:45 10° 106° (ESE) 2,045 9.1 -3.8°
Enters shadow 19:10:03 - 106° (ESE) 2,548 9.6 -3.9°
Sets 19:11:04 0° 106° (ESE) 2,948 - -4.1°
